Flag for U.S.A. Weather past 2 weeks in Hayward, California, U.S.A.

Now
69 °F

Clear.


Feels Like: 69 °F
Forecast: 59 / 84 °F
Wind: 3 mph from Northwest

Location: Hayward Air Terminal

Current Time: Oct 1, 2014 at 8:29:05 PM

Latest Report: Oct 1, 2014 at 7:54 PM


Visibility: 10 mi

Pressure: 29.92 "Hg

Humidity: 42%

Dew point: 45 °F

Location of HaywardLocation

Historic Weather in Hayward — Graph

°F

Hayward temperature yesterday

Maximum temperature yesterday: 75 °F (at 3:54 PM)
Minimum temperature yesterday: 61 °F (at 1:54 AM)
Average temperature yesterday: 67 °F

Past Weeks' High & Low Weather Summary

 TemperatureHumidityPressure
High82 °F (Sep 17, 3:54 PM)100% (Sep 24, 2:54 AM)30.07 "Hg (Sep 24, 2:54 AM)
Low57 °F (Oct 1, 5:54 AM)28% (Oct 1, 3:54 PM)29.77 "Hg (Sep 17, 6:54 PM)
Average69 °F78%29.94 "Hg
* Reported Sep 16 6:54 PM — Oct 1 6:54 PM, Hayward, Weather by CustomWeather, © 2014

Note: Actual official high and low records may vary slightly from our data, if they occured in-between our weather recording intervals... More about our weather records

Advertising

Hayward weather history for previous 24 hours

 ConditionsComfort  
Time TempWeatherWind HumidityBarometerVisibility
6:54 PM
Oct 1
70 °FSunny.N/A39%29.90 "Hg10 mi
5:54 PM75 °FSunny.10 mph36%29.88 "Hg10 mi
4:54 PM77 °FSunny.13 mph35%29.88 "Hg10 mi
3:54 PM80 °FSunny.9 mph28%29.88 "Hg10 mi
2:54 PM78 °FSunny.12 mph29%29.88 "Hg10 mi
12:54 PM76 °FSunny.12 mph35%29.91 "Hg10 mi
11:54 AM73 °FSunny.9 mph43%29.93 "Hg10 mi
10:54 AM71 °FSunny.5 mph53%29.94 "Hg10 mi
9:54 AM69 °FSunny.3 mph55%29.94 "Hg10 mi
8:54 AM62 °FSunny.No wind75%29.93 "Hg10 mi
7:54 AM61 °FClear.No wind75%29.92 "Hg10 mi
6:54 AM59 °FClear.No wind78%29.91 "Hg10 mi
5:54 AM57 °FClear.No wind93%29.90 "Hg10 mi
4:54 AM59 °FClear.6 mph84%29.88 "Hg10 mi
3:54 AM60 °FClear.5 mph86%29.87 "Hg10 mi
2:54 AM61 °FClear.5 mph87%29.88 "Hg10 mi
1:54 AM63 °FClear.3 mph84%29.88 "Hg10 mi
12:54 AM63 °FClear.No wind84%29.88 "Hg10 mi
11:54 PM
Sep 30
65 °FClear.3 mph78%29.87 "Hg10 mi
10:54 PM67 °FClear.3 mph76%29.87 "Hg10 mi
9:54 PM69 °FClear.No wind76%29.87 "Hg10 mi
8:54 PM69 °FClear.No wind76%29.87 "Hg10 mi
Weather by CustomWeather, © 2014

See weather overviewHow to use our weather pages